Starlink 33634

operational
NORAD ID: 63377 Int'l Des: 2025-063 Owner: SPXS Country: US Constellation: starlink
LEOCIRCULAR

About Starlink 33634

Description loading...

Live Position

Loading 3D Globe...

Upcoming Passes

Altitude History

Altitude vs Time

uPlot chart will show altitude changes over time

Two-Line Element Set

1 63377U 25063Q 25258.40741281 .00057175 00000-0 14275-2 0 9997
2 63377 53.1568 147.2920 0001662 90.0819 270.0376 15.39644668 27919
Epoch: Sep 15, 2025 • Age: 16 hours

Current Status

Altitude 452.1 km
Velocity 7.65 km/s
Sub-Earth Point 51.86°N, 129.63°W
Launch Date Mar 26, 2025
Age 0.4 years
Type internet

Technical Details

Classification Payload
Mass 575.00 kg
Dry Mass 530.00 kg
Total Mass 575.00 kg
Length 0.30 m
Diameter 4.10 m
Span 29.00 m
Shape Box + pan
Manufacturer SPXS
Bus Type Starlink V2MO
Phase Status In Orbit
Owner/State SPXS/US

Large Constellations

Loading constellations...